Location: Albuquerque Trailhead
(34.7934°N, 106.3736°W)
Time: 05:43:27
(UTC+00:00)

USA 215 - Pass Details

Date: 20 June 2021
Orbit: 1100 x 1107 km, 123.0° (Epoch: 22 June)

Event Time Altitude Azimuth Distance (km) Brightness Sun altitude
Rises 04:23:37 0° 51° (NE) 3,918 6.2 -20.0°
Reaches altitude 10° 04:26:19 10° 60° (ENE) 2,957 5.4 -20.4°
Maximum altitude 04:32:18 38° 126° (SE) 1,620 3.6 -21.2°
Enters shadow 04:32:56 37° 139° (SE) 1,641 3.6 -21.2°
